Weather History for St. Catharines ON, Ontario

Change the Weather History Date:

Monday, November 11, 2013

  Actual Average Record
Temperature  
Mean Temperature 40 °F -  
Max Temperature 46 °F 41 °F - ()
Min Temperature 33 °F 32 °F - ()
Degree Days  
Heating Degree Days 26    
Moisture  
Dew Point 34 °F    
Average Humidity 81    
Maximum Humidity 93    
Minimum Humidity 60    
Precipitation  
Precipitation 0.00 in 0.10 in - ()
Sea Level Pressure  
Sea Level Pressure 30.02 in    
Wind  
Wind Speed 12 mph ()    
Max Wind Speed 22 mph    
Max Gust Speed 32 mph    
Visibility 9.1 miles    
Events Rain , Snow    
T = Trace of Precipitation, MM = Missing Value Source: Averaged Metar Reports

Daily Weather History Graph

Daily Weather History Graph

Search for Another Location

Airport:

Trip Planner

Search our weather history database for the weather conditions in past years. The results will help you decide how hot, cold, wet, or windy it might be!

Date:

Astronomy

Nov. 11, 2013 Rise Set
Actual Time 7:04 AM EST 4:56 PM EST
Civil Twilight 6:34 AM EST 5:26 PM EST
Nautical Twilight 6:00 AM EST 6:00 PM EST
Astronomical Twilight 5:26 AM EST 6:34 PM EST
Moon 1:44 PM EST (11/11) 12:38 AM EST (11/11)
Length of Visible Light 10h 52m
Length of Day
9h 51m
Waxing Gibbous, 66% of the Moon is Illuminated
Nov 11
Waxing Gibbous
Nov 17
Full
Nov 25
Last Quarter
Dec 2
New
Dec 9
First Quarter

Hourly Weather History & Observations

Time (EST) Temp. Windchill Dew Point Humidity Pressure Visibility Wind Dir Wind Speed Gust Speed Precip Events Conditions
7:00 AM 37.4 °F 31.4 °F 30.2 °F 75% 30.09 in 15.0 mi SW 8.1 mph - N/A   Mostly Cloudy
8:00 AM 41.0 °F 36.4 °F 33.8 °F 76% 30.09 in 15.0 mi West 6.9 mph - N/A   Overcast
9:00 AM 42.8 °F 39.3 °F 35.6 °F 76% 30.06 in 15.0 mi SW 5.8 mph - N/A   Overcast
10:00 AM 46.4 °F 38.5 °F 37.4 °F 71% 30.01 in 15.0 mi SW 21.9 mph 29.9 mph N/A   Overcast
10:34 AM 46.4 °F 38.5 °F 37.4 °F 71% 30.02 in 15.0 mi SW 21.9 mph 32.2 mph N/A Rain Light Rain Showers
11:00 AM 44.6 °F 37.2 °F 39.2 °F 81% 30.00 in 12.0 mi SW 17.3 mph 29.9 mph N/A Rain Light Rain Showers
12:00 PM 44.6 °F 37.2 °F 39.2 °F 81% 29.98 in 10.0 mi SW 17.3 mph 31.1 mph N/A Rain Light Rain Showers
1:00 PM 42.8 °F 34.8 °F 39.2 °F 87% 29.96 in 8.0 mi WSW 17.3 mph 28.8 mph N/A Rain Light Rain
2:00 PM 42.8 °F 36.2 °F 37.4 °F 81% 29.94 in 10.0 mi WSW 12.7 mph 19.6 mph N/A Rain Light Rain Showers
3:00 PM 42.8 °F 35.8 °F 39.2 °F 87% 29.94 in 10.0 mi WSW 13.8 mph 26.5 mph N/A Rain Light Rain Showers
4:00 PM 41.0 °F 33.9 °F 39.2 °F 93% 29.96 in 7.0 mi WSW 12.7 mph 25.3 mph N/A Rain Light Rain Showers
4:17 PM 41.0 °F 34.7 °F 39.2 °F 93% 29.96 in 6.0 mi WSW 10.4 mph - N/A Rain Light Rain Showers
5:00 PM 37.4 °F 27.8 °F 35.6 °F 93% 29.98 in 5.0 mi WNW 17.3 mph 32.2 mph N/A Rain Rain Showers
6:00 PM 35.6 °F 25.5 °F 33.8 °F 93% 30.02 in 6.0 mi NW 17.3 mph 23.0 mph N/A Rain Light Rain Showers
6:38 PM 35.6 °F 24.8 °F 32.0 °F 87% 30.04 in 5.0 mi NW 19.6 mph 27.6 mph N/A Rain , Snow Light Rain
6:47 PM 35.6 °F 27.1 °F 30.2 °F 81% 30.05 in 7.0 mi NW 12.7 mph 26.5 mph N/A Rain Light Rain
7:00 PM 35.6 °F 26.2 °F 28.4 °F 75% 30.05 in 7.0 mi WNW 15.0 mph 24.2 mph N/A   Overcast
7:10 PM 35.6 °F 24.8 °F 28.4 °F 75% 30.05 in 6.0 mi NW 19.6 mph 26.5 mph N/A Snow Light Snow Showers
7:23 PM 33.8 °F 22.8 °F 28.4 °F 81% 30.06 in 7.0 mi NW 18.4 mph - N/A Rain , Snow Light Rain Showers
8:00 PM 33.8 °F 23.9 °F 28.4 °F 81% 30.08 in 5.0 mi NNW 15.0 mph 21.9 mph N/A Snow Light Snow Showers
8:44 PM 33.8 °F 23.9 °F 26.6 °F 75% 30.09 in 7.0 mi NNW 15.0 mph - N/A   Overcast
9:00 PM 33.8 °F 23.5 °F 21.2 °F 60% 30.09 in 8.0 mi NW 16.1 mph 23.0 mph N/A   Overcast